When you browse on this site, cookies collect data to enhance your experience and personalize the content and advertising you see.
Visit our Privacy Policy to learn more. By continuing to use the site, you agree to this use of cookies and data.
  • In Portugal
  • List of Countries
  • For 7 days
  • Water Temperature
  • Weather Map
  • Weather Widgets
  • user-avatar
    Login

    Hourly Weather Ogarevo

    Today, 2 June, Tuesday

    Time Temperature Precipitation Wind Pressure Humidity
    00:00 +9°C° 0 mm 5 mps 742 mmHg 95%
    01:00 +9°C° 0 mm 5 mps 742 mmHg 94%
    02:00 +9°C° 0 mm 5 mps 743 mmHg 93%
    03:00 +9°C° 0 mm 5 mps 743 mmHg 93%
    04:00 +9°C° 0 mm 5 mps 743 mmHg 93%
    05:00 +9°C° 0 mm 5 mps 742 mmHg 93%
    06:00 +9°C° 0 mm 5 mps 742 mmHg 93%
    07:00 +9°C° 0.2 mm 5 mps 742 mmHg 93%
    08:00 +10°C° 0.2 mm 5 mps 743 mmHg 93%
    09:00 +10°C° 0.2 mm 5 mps 743 mmHg 93%
    10:00 +10°C° 0.5 mm 5 mps 743 mmHg 93%
    11:00 +12°C° 0.5 mm 5 mps 743 mmHg 94%
    12:00 +12°C° 0.5 mm 5 mps 743 mmHg 94%
    13:00 +12°C° 0.3 mm 5 mps 743 mmHg 94%
    14:00 +12°C° 0.3 mm 4 mps 743 mmHg 94%
    15:00 +12°C° 0.3 mm 4 mps 743 mmHg 95%
    16:00 +12°C° 0 mm 4 mps 743 mmHg 94%
    17:00 +13°C° 0 mm 5 mps 743 mmHg 93%
    18:00 +13°C° 0 mm 5 mps 742 mmHg 93%
    19:00 +13°C° 0 mm 5 mps 743 mmHg 94%
    20:00 +12°C° 0 mm 4 mps 743 mmHg 95%
    21:00 +12°C° 0 mm 4 mps 743 mmHg 96%
    22:00 +12°C° 0 mm 4 mps 743 mmHg 96%
    23:00 +12°C° 0 mm 4 mps 742 mmHg 97%

    Tomorrow, 3 June, Wednesday

    Time Temperature Precipitation Wind Pressure Humidity
    00:00 +12°C° 0 mm 4 mps 742 mmHg 97%
    01:00 +12°C° 0 mm 4 mps 742 mmHg 97%
    02:00 +13°C° 0 mm 4 mps 742 mmHg 97%
    03:00 +13°C° 0 mm 4 mps 743 mmHg 96%
    04:00 +13°C° 0 mm 5 mps 742 mmHg 96%
    05:00 +13°C° 0 mm 5 mps 742 mmHg 95%
    06:00 +13°C° 0 mm 6 mps 742 mmHg 95%
    07:00 +14°C° 0 mm 6 mps 742 mmHg 92%
    08:00 +15°C° 0 mm 6 mps 742 mmHg 89%
    09:00 +16°C° 0 mm 7 mps 742 mmHg 87%
    10:00 +15°C° 0.3 mm 6 mps 742 mmHg 89%
    11:00 +15°C° 0.3 mm 6 mps 742 mmHg 91%
    12:00 +15°C° 0.3 mm 5 mps 742 mmHg 93%
    13:00 +15°C° 0.1 mm 6 mps 742 mmHg 91%
    14:00 +16°C° 0.1 mm 6 mps 741 mmHg 89%
    15:00 +17°C° 0.1 mm 7 mps 741 mmHg 86%
    16:00 +17°C° 0 mm 7 mps 741 mmHg 87%
    17:00 +16°C° 0 mm 6 mps 740 mmHg 87%
    18:00 +16°C° 0 mm 6 mps 739 mmHg 88%
    19:00 +16°C° 0.1 mm 7 mps 739 mmHg 87%
    20:00 +16°C° 0.1 mm 8 mps 739 mmHg 87%
    21:00 +16°C° 0.1 mm 9 mps 740 mmHg 86%
    22:00 +16°C° 1.4 mm 8 mps 739 mmHg 89%
    23:00 +15°C° 1.4 mm 8 mps 739 mmHg 91%

    Day after tomorrow, 4 June, Thursday

    Time Temperature Precipitation Wind Pressure Humidity
    00:00 +15°C° 1.4 mm 7 mps 739 mmHg 93%
    01:00 +15°C° 3.2 mm 7 mps 739 mmHg 94%
    02:00 +15°C° 3.2 mm 6 mps 739 mmHg 95%
    03:00 +14°C° 3.2 mm 5 mps 739 mmHg 95%
    04:00 +14°C° 1 mm 6 mps 739 mmHg 95%
    05:00 +14°C° 1 mm 6 mps 739 mmHg 95%
    06:00 +14°C° 1 mm 6 mps 739 mmHg 94%
    07:00 +15°C° 0.4 mm 5 mps 739 mmHg 93%
    08:00 +17°C° 0.4 mm 4 mps 739 mmHg 92%
    09:00 +17°C° 0.4 mm 4 mps 739 mmHg 91%
    10:00 +18°C° 0.2 mm 3 mps 739 mmHg 89%
    11:00 +19°C° 0.2 mm 3 mps 739 mmHg 88%
    12:00 +20°C° 0.2 mm 2 mps 739 mmHg 86%
    13:00 +20°C° 1.9 mm 2 mps 739 mmHg 86%
    14:00 +20°C° 1.9 mm 2 mps 739 mmHg 86%
    15:00 +21°C° 1.9 mm 1 mps 739 mmHg 86%
    16:00 +21°C° 2.3 mm 1 mps 739 mmHg 87%
    17:00 +21°C° 2.3 mm 1 mps 739 mmHg 88%
    18:00 +21°C° 2.3 mm 1 mps 739 mmHg 90%
    19:00 +20°C° 0.3 mm 1 mps 739 mmHg 90%
    20:00 +19°C° 0.3 mm 1 mps 740 mmHg 91%
    21:00 +18°C° 0.3 mm 1 mps 740 mmHg 92%
    22:00 +16°C° 0 mm 1 mps 740 mmHg 93%
    23:00 +16°C° 0 mm 1 mps 740 mmHg 94%

    5 June, Friday

    Time Temperature Precipitation Wind Pressure Humidity
    00:00 +15°C° 0 mm 2 mps 740 mmHg 95%
    01:00 +15°C° 0 mm 1 mps 740 mmHg 95%
    02:00 +14°C° 0 mm 1 mps 740 mmHg 95%
    03:00 +14°C° 0 mm 1 mps 741 mmHg 95%
    04:00 +15°C° 0 mm 1 mps 741 mmHg 95%
    05:00 +15°C° 0 mm 1 mps 741 mmHg 95%
    06:00 +16°C° 0 mm 1 mps 741 mmHg 95%
    07:00 +18°C° 0 mm 1 mps 741 mmHg 93%
    08:00 +19°C° 0 mm 1 mps 741 mmHg 91%
    09:00 +20°C° 0 mm 1 mps 741 mmHg 89%
    10:00 +20°C° 0.2 mm 1 mps 741 mmHg 86%
    11:00 +21°C° 0.2 mm 1 mps 741 mmHg 84%
    12:00 +22°C° 0.2 mm 1 mps 741 mmHg 81%
    13:00 +22°C° 0.7 mm 1 mps 741 mmHg 80%
    14:00 +23°C° 0.7 mm 2 mps 741 mmHg 79%
    15:00 +23°C° 0.7 mm 2 mps 741 mmHg 78%
    16:00 +21°C° 1.5 mm 3 mps 741 mmHg 82%
    17:00 +19°C° 1.5 mm 4 mps 741 mmHg 86%
    18:00 +17°C° 1.5 mm 6 mps 741 mmHg 90%
    19:00 +17°C° 0.1 mm 4 mps 741 mmHg 92%
    20:00 +16°C° 0.1 mm 3 mps 741 mmHg 93%
    21:00 +15°C° 0.1 mm 1 mps 741 mmHg 95%
    22:00 +15°C° 0 mm 1 mps 742 mmHg 96%
    23:00 +14°C° 0 mm 2 mps 742 mmHg 96%

    6 June, Saturday

    Time Temperature Precipitation Wind Pressure Humidity
    00:00 +14°C° 0 mm 2 mps 742 mmHg 96%
    01:00 +13°C° 0 mm 2 mps 742 mmHg 96%
    02:00 +13°C° 0 mm 2 mps 742 mmHg 96%
    03:00 +13°C° 0 mm 2 mps 742 mmHg 96%
    04:00 +13°C° 0 mm 2 mps 743 mmHg 95%
    05:00 +14°C° 0 mm 2 mps 743 mmHg 94%
    06:00 +15°C° 0 mm 1 mps 743 mmHg 93%
    07:00 +16°C° 0 mm 1 mps 743 mmHg 88%
    08:00 +18°C° 0 mm 1 mps 744 mmHg 83%
    09:00 +20°C° 0 mm 1 mps 744 mmHg 78%
    10:00 +21°C° 0 mm 1 mps 744 mmHg 75%
    11:00 +20°C° 0 mm 0 mps 744 mmHg 71%
    12:00 +21°C° 0 mm 0 mps 744 mmHg 67%
    13:00 +21°C° 0.2 mm 0 mps 744 mmHg 67%
    14:00 +21°C° 0.2 mm 0 mps 744 mmHg 67%
    15:00 +23°C° 0.2 mm 1 mps 744 mmHg 68%
    16:00 +22°C° 0.3 mm 1 mps 744 mmHg 71%
    17:00 +22°C° 0.3 mm 1 mps 744 mmHg 75%
    18:00 +21°C° 0.3 mm 2 mps 744 mmHg 78%
    19:00 +19°C° 0 mm 3 mps 745 mmHg 84%
    20:00 +17°C° 0 mm 4 mps 745 mmHg 90%
    21:00 +15°C° 0 mm 5 mps 745 mmHg 95%
    22:00 +14°C° 0 mm 4 mps 745 mmHg 95%
    23:00 +13°C° 0 mm 4 mps 745 mmHg 95%

    7 June, Sunday

    Time Temperature Precipitation Wind Pressure Humidity
    00:00 +13°C° 0 mm 3 mps 746 mmHg 95%
    01:00 +12°C° 0 mm 3 mps 746 mmHg 96%
    02:00 +12°C° 0 mm 3 mps 746 mmHg 96%
    03:00 +11°C° 0 mm 3 mps 746 mmHg 97%
    04:00 +12°C° 0 mm 3 mps 746 mmHg 96%
    05:00 +12°C° 0 mm 4 mps 746 mmHg 95%
    06:00 +13°C° 0 mm 4 mps 746 mmHg 94%
    07:00 +14°C° 0 mm 4 mps 747 mmHg 91%
    08:00 +15°C° 0 mm 4 mps 747 mmHg 89%
    09:00 +18°C° 0 mm 4 mps 747 mmHg 86%
    10:00 +19°C° 0 mm 4 mps 747 mmHg 83%
    11:00 +20°C° 0 mm 4 mps 747 mmHg 80%
    12:00 +21°C° 0 mm 4 mps 747 mmHg 77%
    13:00 +22°C° 0 mm 4 mps 747 mmHg 76%
    14:00 +22°C° 0 mm 4 mps 747 mmHg 75%
    15:00 +22°C° 0 mm 4 mps 746 mmHg 74%
    16:00 +22°C° 0.3 mm 4 mps 746 mmHg 77%
    17:00 +22°C° 0.3 mm 3 mps 746 mmHg 80%
    18:00 +21°C° 0.3 mm 3 mps 746 mmHg 83%
    19:00 +20°C° 0 mm 4 mps 746 mmHg 85%
    20:00 +18°C° 0 mm 4 mps 746 mmHg 88%
    21:00 +17°C° 0 mm 4 mps 746 mmHg 90%
    22:00 +15°C° 0 mm 4 mps 746 mmHg 91%
    23:00 +15°C° 0 mm 4 mps 746 mmHg 93%
    Show more